This demonstration page uses our WeatherBlox Daily Observations layout. Learn more.

Hourly Observations for October 23, 2019

Temp ( °F °C ) Dew Point ( °F °C ) Humidity (%) Winds ( mph kmh ) Pressure ( in mb ) Visibility ( mi km ) Precip ( " mm )
12:54 am 00:54 Cloudy 48 8.9 32 0 54 54 SW 8 13 29.85 1011 10 16.09344 0 0
1:54 am 01:54 Cloudy 51 10.6 39 3.9 64 64 Calm 29.83 1010 10 16.09344 0.01 0.254
2:54 am 02:54 Cloudy 50 10 40 4.4 68 68 SSW 9 15 29.83 1010 10 16.09344 0 0
3:54 am 03:54 Mostly Clear 47 8.3 40 4.4 77 77 SE 6 9 29.8 1009 10 16.09344 0 0
4:54 am 04:54 Mostly Cloudy 46 7.8 40 4.4 79 79 SE 3 6 29.77 1008 10 16.09344 0 0
5:54 am 05:54 Partly Cloudy 46 7.8 39 3.9 77 77 ESE 8 13 29.77 1008 10 16.09344 0 0
6:54 am 06:54 Clear 46 7.8 36 2.2 68 68 E 5 7 29.77 1008 10 16.09344 0 0
7:54 am 07:54 Sunny 40 4.4 37 2.8 89 89 Calm 29.8 1009 10 16.09344 0 0
8:54 am 08:54 Sunny 45 7.2 40 4.4 83 83 W 5 7 29.8 1009 10 16.09344 0 0
9:54 am 09:54 Sunny 51 10.6 38 3.3 61 61 undefined N/A 29.8 1009 10 16.09344 0 0
10:54 am 10:54 Sunny 53 11.7 39 3.9 59 59 W 10 17 29.8 1009 10 16.09344 0 0
11:54 am 11:54 Partly Cloudy 54 12.2 41 5 62 62 NW 16 26 29.83 1010 10 16.09344 0 0
12:54 pm 12:54 Partly Cloudy 60 15.6 42 5.6 52 52 NW 22 35 29.85 1011 10 16.09344 0 0
1:54 pm 13:54 Partly Cloudy 61 16.1 41 5 48 48 NNW 20 31 29.85 1011 10 16.09344 0 0
2:54 pm 14:54 Mostly Sunny 62 16.7 36 2.2 38 38 NNW 24 39 29.85 1011 10 16.09344 0 0
3:54 pm 15:54 Partly Cloudy 63 17.2 35 1.7 35 35 NNW 20 31 29.91 1013 10 16.09344 0 0
4:54 pm 16:54 Mostly Sunny 59 15 35 1.7 41 41 NNW 14 22 29.94 1014 10 16.09344 0 0
5:54 pm 17:54 Sunny 59 15 35 1.7 41 41 NNW 15 24 29.97 1015 10 16.09344 0 0
6:54 pm 18:54 Mostly Clear 50 10 40 4.4 68 68 NNE 10 17 30.03 1017 10 16.09344 0 0
7:54 pm 19:54 Clear 46 7.8 39 3.9 77 77 NNE 13 20 30.12 1020 10 16.09344 0 0
8:52 pm 20:52 Cloudy 46 8 39 4 76 76 NNE 7 11 30.21 1023 10 16.09344 0 0
8:54 pm 20:54 Cloudy 46 7.8 39 3.9 77 77 NNE 6 9 30.18 1022 10 16.09344 0 0
9:54 pm 21:54 Cloudy 45 7.2 38 3.3 77 77 NNE 16 26 30.21 1023 10 16.09344 0 0
10:14 pm 22:14 Cloudy 44 6.7 37 2.8 76 76 N 16 26 30.27 1025 10 16.09344 0 0
10:40 pm 22:40 Cloudy with Light Rain 43 6.1 39 3.9 86 86 N 14 22 30.33 1027 5 8.04672 0.001 0.001
10:47 pm 22:47 Cloudy with Light Rain 41 5 38 3.3 89 89 N 24 39 30.33 1027 4 6.437376 0.001 0.001
10:54 pm 22:54 Cloudy with Light Rain 41 5 37 2.8 86 86 N 17 28 30.27 1025 5 8.04672 0.001 0.001
11:11 pm 23:11 Cloudy with Light Rain 41 5 37 2.8 86 86 N 17 28 30.33 1027 9 14.484096 0.001 0.001
11:50 pm 23:50 Cloudy 39 4 36 2 87 87 N 20 31 30.33 1027 10 16.09344 0.001 0.001
11:54 pm 23:54 Cloudy 39 3.9 35 1.7 86 86 N 17 28 30.3 1026 10 16.09344 0.001 0.001

Powered by AerisWeather